TimeEDT,TemperatureF,Dew PointF,Humidity,Sea Level PressureIn,VisibilityMPH,Wind Direction,Wind SpeedMPH,Gust SpeedMPH,PrecipitationIn,Events,Conditions,WindDirDegrees,DateUTC
12:15 AM,46.4,35.6,66,30.13,10.0,Calm,Calm,-,N/A,,Overcast,0,2013-04-03 04:15:00
12:35 AM,48.2,35.6,62,30.14,10.0,Calm,Calm,-,N/A,,Overcast,0,2013-04-03 04:35:00
12:55 AM,48.2,35.6,62,30.15,10.0,Calm,Calm,-,N/A,,Overcast,0,2013-04-03 04:55:00
1:15 AM,48.2,33.8,58,30.16,10.0,Calm,Calm,-,N/A,,Overcast,0,2013-04-03 05:15:00
1:35 AM,48.2,30.2,50,30.16,10.0,Calm,Calm,-,N/A,,Overcast,0,2013-04-03 05:35:00
1:55 AM,48.2,30.2,50,30.17,10.0,Calm,Calm,-,N/A,,Overcast,0,2013-04-03 05:55:00
2:15 AM,48.2,28.4,46,30.17,10.0,North,3.5,-,N/A,,Overcast,10,2013-04-03 06:15:00
2:35 AM,48.2,28.4,46,30.17,10.0,NE,5.8,-,N/A,,Overcast,40,2013-04-03 06:35:00
2:55 AM,48.2,24.8,40,30.17,10.0,NE,6.9,-,N/A,,Overcast,40,2013-04-03 06:55:00
3:15 AM,48.2,24.8,40,30.17,10.0,NE,9.2,-,N/A,,Overcast,40,2013-04-03 07:15:00
3:35 AM,48.2,21.2,34,30.15,10.0,NE,8.1,-,N/A,,Overcast,40,2013-04-03 07:35:00
3:55 AM,48.2,21.2,34,30.14,10.0,NE,12.7,17.3,N/A,,Overcast,40,2013-04-03 07:55:00
4:15 AM,48.2,19.4,32,30.14,10.0,NE,10.4,18.4,N/A,,Overcast,50,2013-04-03 08:15:00
4:35 AM,48.2,17.6,30,30.15,10.0,NE,12.7,17.3,N/A,,Overcast,40,2013-04-03 08:35:00
4:55 AM,46.4,15.8,29,30.15,10.0,NE,10.4,20.7,N/A,,Overcast,40,2013-04-03 08:55:00
5:15 AM,46.4,15.8,29,30.17,10.0,NE,9.2,-,N/A,,Overcast,40,2013-04-03 09:15:00
5:35 AM,46.4,15.8,29,30.18,10.0,NE,8.1,-,N/A,,Overcast,50,2013-04-03 09:35:00
5:55 AM,46.4,15.8,29,30.18,10.0,ENE,6.9,-,N/A,,Overcast,60,2013-04-03 09:55:00
6:15 AM,46.4,15.8,29,30.19,10.0,NE,8.1,-,N/A,,Overcast,50,2013-04-03 10:15:00
6:35 AM,46.4,14.0,27,30.19,10.0,NE,6.9,-,N/A,,Overcast,50,2013-04-03 10:35:00
6:55 AM,46.4,14.0,27,30.21,10.0,NE,6.9,-,N/A,,Overcast,50,2013-04-03 10:55:00
7:15 AM,44.6,14.0,29,30.22,10.0,NE,6.9,-,N/A,,Overcast,50,2013-04-03 11:15:00
7:35 AM,44.6,15.8,31,30.22,10.0,NE,6.9,-,N/A,,Overcast,40,2013-04-03 11:35:00
7:55 AM,44.6,15.8,31,30.24,10.0,NE,6.9,-,N/A,,Overcast,50,2013-04-03 11:55:00
8:15 AM,44.6,15.8,31,30.25,10.0,NE,4.6,-,N/A,,Mostly Cloudy,50,2013-04-03 12:15:00
8:35 AM,46.4,17.6,32,30.26,10.0,NE,9.2,-,N/A,,Clear,50,2013-04-03 12:35:00
8:55 AM,46.4,17.6,32,30.27,10.0,NE,5.8,-,N/A,,Partly Cloudy,40,2013-04-03 12:55:00
9:15 AM,48.2,17.6,30,30.27,10.0,NE,8.1,-,N/A,,Partly Cloudy,40,2013-04-03 13:15:00
9:35 AM,50.0,17.6,28,30.28,10.0,NE,9.2,-,N/A,,Clear,50,2013-04-03 13:35:00
9:55 AM,50.0,17.6,28,30.28,10.0,NE,12.7,18.4,N/A,,Mostly Cloudy,40,2013-04-03 13:55:00
10:15 AM,51.8,15.8,24,30.27,10.0,NNE,6.9,-,N/A,,Partly Cloudy,20,2013-04-03 14:15:00
10:35 AM,51.8,17.6,26,30.27,10.0,ENE,13.8,18.4,N/A,,Clear,60,2013-04-03 14:35:00
10:55 AM,51.8,15.8,24,30.27,10.0,NNE,10.4,18.4,N/A,,Clear,30,2013-04-03 14:55:00
11:15 AM,51.8,17.6,26,30.27,10.0,NE,9.2,16.1,N/A,,Clear,40,2013-04-03 15:15:00
11:35 AM,53.6,17.6,24,30.27,10.0,NE,5.8,-,N/A,,Clear,50,2013-04-03 15:35:00
11:55 AM,53.6,17.6,24,30.26,10.0,ENE,4.6,-,N/A,,Clear,70,2013-04-03 15:55:00
12:15 PM,53.6,17.6,24,30.26,10.0,East,5.8,-,N/A,,Clear,100,2013-04-03 16:15:00
12:35 PM,55.4,17.6,23,30.26,10.0,East,4.6,-,N/A,,Clear,80,2013-04-03 16:35:00
12:55 PM,55.4,17.6,23,30.25,10.0,Calm,Calm,-,N/A,,Clear,0,2013-04-03 16:55:00
1:15 PM,57.2,19.4,23,30.24,10.0,ENE,4.6,-,N/A,,Clear,70,2013-04-03 17:15:00
1:35 PM,57.2,17.6,21,30.23,10.0,NE,4.6,-,N/A,,Clear,40,2013-04-03 17:35:00
1:55 PM,57.2,19.4,23,30.23,10.0,Calm,Calm,-,N/A,,Clear,0,2013-04-03 17:55:00
2:15 PM,57.2,19.4,23,30.22,10.0,Calm,Calm,-,N/A,,Clear,0,2013-04-03 18:15:00
2:35 PM,57.2,19.4,23,30.21,10.0,NE,4.6,-,N/A,,Clear,50,2013-04-03 18:35:00
2:55 PM,60.8,21.2,22,30.20,10.0,Calm,Calm,-,N/A,,Clear,0,2013-04-03 18:55:00
3:15 PM,60.8,21.2,22,30.20,10.0,Calm,Calm,-,N/A,,Clear,0,2013-04-03 19:15:00
3:35 PM,60.8,21.2,22,30.20,10.0,Calm,Calm,-,N/A,,Clear,0,2013-04-03 19:35:00
3:55 PM,60.8,21.2,22,30.20,10.0,NW,5.8,-,N/A,,Clear,320,2013-04-03 19:55:00
4:15 PM,60.8,19.4,20,30.19,10.0,North,4.6,-,N/A,,Clear,360,2013-04-03 20:15:00
4:35 PM,62.6,21.2,20,30.19,10.0,WNW,4.6,-,N/A,,Clear,290,2013-04-03 20:35:00
4:55 PM,60.8,19.4,20,30.19,10.0,NNW,3.5,-,N/A,,Clear,340,2013-04-03 20:55:00
5:15 PM,60.8,19.4,20,30.20,10.0,NNW,3.5,-,N/A,,Clear,340,2013-04-03 21:15:00
5:35 PM,60.8,19.4,20,30.20,10.0,WNW,4.6,-,N/A,,Clear,300,2013-04-03 21:35:00
5:55 PM,60.8,19.4,20,30.21,10.0,Calm,Calm,-,N/A,,Clear,0,2013-04-03 21:55:00
6:15 PM,59.0,19.4,22,30.21,10.0,Calm,Calm,-,N/A,,Clear,0,2013-04-03 22:15:00
6:35 PM,59.0,19.4,22,30.21,10.0,Calm,Calm,-,N/A,,Clear,0,2013-04-03 22:35:00
6:55 PM,57.2,21.2,25,30.21,10.0,NE,3.5,-,N/A,,Clear,40,2013-04-03 22:55:00
7:15 PM,55.4,21.2,26,30.21,10.0,Calm,Calm,-,N/A,,Clear,0,2013-04-03 23:15:00
7:35 PM,55.4,21.2,26,30.22,10.0,Calm,Calm,-,N/A,,Clear,0,2013-04-03 23:35:00
7:55 PM,53.6,23.0,30,30.22,10.0,Calm,Calm,-,N/A,,Clear,0,2013-04-03 23:55:00
8:15 PM,53.6,23.0,30,30.23,10.0,Calm,Calm,-,N/A,,Clear,0,2013-04-04 00:15:00
8:35 PM,51.8,23.0,33,30.24,10.0,Calm,Calm,-,N/A,,Clear,0,2013-04-04 00:35:00
8:55 PM,51.8,24.8,35,30.24,10.0,NE,3.5,-,N/A,,Clear,40,2013-04-04 00:55:00
9:15 PM,51.8,23.0,33,30.25,10.0,Calm,Calm,-,N/A,,Clear,0,2013-04-04 01:15:00
9:35 PM,51.8,24.8,35,30.26,10.0,Calm,Calm,-,N/A,,Clear,0,2013-04-04 01:35:00
9:55 PM,51.8,24.8,35,30.27,10.0,Calm,Calm,-,N/A,,Clear,0,2013-04-04 01:55:00
10:15 PM,50.0,24.8,37,30.28,10.0,Calm,Calm,-,N/A,,Clear,0,2013-04-04 02:15:00
10:35 PM,50.0,23.0,35,30.29,10.0,Calm,Calm,-,N/A,,Clear,0,2013-04-04 02:35:00
10:55 PM,48.2,24.8,40,30.28,10.0,Calm,Calm,-,N/A,,Clear,0,2013-04-04 02:55:00
11:15 PM,48.2,26.6,43,30.28,10.0,Calm,Calm,-,N/A,,Clear,0,2013-04-04 03:15:00
11:35 PM,46.4,26.6,46,30.28,10.0,Calm,Calm,-,N/A,,Clear,0,2013-04-04 03:35:00
11:55 PM,48.2,24.8,40,30.28,10.0,Calm,Calm,-,N/A,,Clear,0,2013-04-04 03:55:00